www.pogodaiklimat.ru

Погода и климат >> Архив погоды >> Корея >> Сувон


ПОГОДА в Сувоне

  • Прогноз погоды в Сувоне
  • Монитор погоды в Сувоне

АРХИВ ПОГОДЫ в Сувоне

Время (UTC), дата Ветер
(напр.,м/с)
 
Видим.   Явления Облачность Т
(С)
Тd
(С)
f
(%)
Тe
(С)
Тes
(С)
Комфортность P
(гПа)
Po
(гПа)
Тmin
(С)
Tmax
(С)
R
(мм)
R24
(мм)
S
(см)
12 12.06 З 1 20 км ясно +20.2 +13.8 67 +24 +24 комфорт 1010.7 1006.6 +26.2
15 12.06 штиль 0 12 км ясно +17.4 +15.5 89 +17 +17 1011.4 1007.3
18 12.06 Ю 1 6000 м дымка ясно +15.9 +15.7 99 +17 +17 1011.3 1007.2
21 12.06 Ю 1 8000 м дымка ясно +15.9 +15.5 97 +17 +17 1011.5 1007.4
00 13.06 ЮВ 1 8000 м мгла 1/0
[Ci fib]
+21.7 +14.3 63 +25 +37 комфорт 1011.7 1007.7 +15.1
03 13.06 С 2 17 км 3/1 1500 м
[Sc Ci fib]
+27.0 +14.3 46 +29 +47 жарко 1010.6 1006.7
06 13.06 З 3 20 км 3/1 1500 м
[Sc Ci fib]
+28.8 +14.6 42 +31 +42 жарко 1008.5 1004.6
09 13.06 З 6 20 км 8/0
[Ci fib]
+26.9 +13.9 45 +29 +30 жарко 1008.1 1004.2
12 13.06 З 3 20 км 8/0
[Cs]
+22.4 +13.7 58 +26 +26 жарко 1009.1 1005.1 +29.3
15 13.06 З 1 18 км 10/0 2000 м
[As trans]
+21.0 +13.6 63 +25 +25 комфорт 1008.9 1004.9
18 13.06 ЮЗ 1 8000 м дымка 9/0
[Ci sp]
+19.2 +15.6 80 +22 +22 комфорт 1007.9 1003.9
21 13.06 штиль 0 5000 м дымка 10/0
[As trans]
+18.3 +16.0 86 +19 +19 1007.5 1003.5
00 14.06 З 2 6000 м дымка 10/0
[As trans]
+21.3 +16.6 75 +25 +29 комфорт 1007.3 1003.3 +17.7
03 14.06 З 2 13 км 8/0
[Ci sp]
+26.8 +15.4 50 +30 +47 душно 1006.4 1002.5
06 14.06 З 2 10 км 6/3 1500 м
[Sc Ci fib]
+28.5 +17.3 51 +33 +42 очень
душно
1004.3 1000.4
09 14.06 З 3 19 км 6/0
[Ci fib]
+24.1 +15.3 58 +27 +29 жарко 1003.0 999.1
12 14.06 З 4 20 км 4/0
[Ci fib]
+21.0 +13.6 63 +24 +24 комфорт 1004.0 1000.0 +28.5
15 14.06 З 3 16 км 3/0
[Ci fib]
+19.8 +15.4 76 +22 +22 комфорт 1003.7 999.7
18 14.06 СЗ 2 12 км 6/0
[Ac trans]
+18.9 +16.1 84 +21 +21 комфорт 1002.1 998.1
21 14.06 Ю 1 9000 м дымка ясно +17.9 +16.5 92 +19 +20 1002.0 998.0
00 15.06 СЗ 5 9000 м мгла 4/4 1000 м
[Sc]
+23.9 +17.1 66 +28 +31 душно 1001.8 997.9 +17.1
03 15.06 11 км н/о +26.3 +17.6 59 +31 +42 душно 999.8 995.9
06 15.06 З 5 15 км ясно +25.4 +17.8 63 +30 +38 душно 998.0 994.1
09 15.06 З 4 17 км 3/3 600 м
[Cu med, cong]
+23.1 +15.9 64 +28 +29 душно 998.1 994.2
12 15.06 С 3 20 км 3/3 1500 м
[Sc]
+19.5 +14.9 75 +22 +22 комфорт 1000.6 996.6 +26.8 0.3
15 15.06 СВ 1 20 км ясно +17.8 +14.4 80 +19 +19 1002.6 998.6
18 15.06 штиль 0 19 км ясно +16.1 +14.6 91 +16 +16 1003.3 999.2
21 15.06 штиль 0 17 км ясно +16.3 +15.4 94 +16 +17 1005.1 1001.0
00 16.06 ЮВ 3 20 км ясно +22.6 +13.9 58 +26 +34 жарко 1006.8 1002.8 +15.3 0.0
03 16.06 20 км н/о +24.9 +14.3 52 +27 +31 жарко 1006.8 1002.9
06 16.06 19 км н/о +26.0 +15.6 53 +29 +32 душно 1007.1 1003.1
09 16.06 З 4 19 км 6/0
[Ci sp]
+23.6 +14.0 55 +26 +28 жарко 1007.7 1003.7
12 16.06 Ю 2 20 км 8/0
[Ci sp]
+19.9 +14.4 71 +23 +23 комфорт 1009.3 1005.3 +28.4
15 16.06 штиль 0 20 км 8/0
[Ci fib]
+17.8 +14.8 83 +18 +18 1010.6 1006.5
18 16.06 штиль 0 11 км 8/0
[Ac trans Ci sp]
+17.5 +15.8 90 +17 +17 1011.6 1007.5
21 16.06 Ю 1 10 км 9/3 1000 м
[Sc Ac trans]
+17.5 +15.8 90 +19 +19 1012.4 1008.3
00 17.06 ЮЗ 4 17 км 3/3 600 м
[Sc]
+21.3 +15.3 69 +24 +29 комфорт 1013.2 1009.2 +17.2 0.2
03 17.06 19 км н/о +23.9 +15.6 60 +27 +40 жарко 1012.8 1008.8
06 17.06 З 3 20 км 8/3 1000 м
[Sc Ci fib]
+25.7 +15.9 55 +29 +36 душно 1012.0 1008.0
09 17.06 З 3 18 км 1/0
[Ci fib]
+23.2 +16.0 64 +28 +30 душно 1011.5 1007.5
12 17.06 З 3 20 км 5/0
[Ci fib]
+20.3 +13.2 64 +23 +23 комфорт 1012.3 1008.2 +26.5 0.0
15 17.06 Ю 3 11 км 3/0
[Ac trans]
+18.9 +16.3 85 +20 +20 1012.4 1008.3
18 17.06 штиль 0 6000 м в посл. час дождь 8/4 1500 м
[Sc As op]
+18.7 +17.7 94 +20 +20 1011.8 1007.7 0.2
21 17.06 ЮВ 1 9000 м дымка 10/10 1500 м
[Sc As op]
+19.2 +16.7 85 +22 +22 комфорт 1011.7 1007.7
00 18.06 В 4 15 км 9/3 1500 м
[Sc As op]
+19.8 +15.2 75 +22 +23 комфорт 1012.4 1008.4 +17.9 0.2
03 18.06 Ю 3 13 км 10/5 600 м
[Sc As op]
+23.8 +16.8 65 +27 +29 жарко 1011.1 1007.1
06 18.06 З 3 16 км 10/6 600 м
[Sc As op]
+23.9 +18.3 71 +28 +29 душно 1010.2 1006.2
09 18.06 З 3 14 км 9/3 600 м
[Sc As op]
+23.9 +17.6 68 +28 +28 душно 1009.3 1005.3
12 18.06 ЮЗ 2 6000 м слаб. дождь 10/8 600 м
[Frnb As op]
+20.2 +19.5 96 +25 +25 комфорт 1010.0 1005.9 +25.2 2
15 18.06 штиль 0 3400 м слаб. дождь 10/8 600 м
[Frnb As op]
+19.3 +19.1 99 +21 +21 комфорт 1009.4 1005.4
18 18.06 СЗ 1 7000 м дымка 10/8 600 м
[Sc As op]
+19.5 +18.5 94 +23 +23 комфорт 1009.0 1005.0
21 18.06 З 1 4000 м в посл. час дождь 10/10 600 м
[Sc As op]
+19.3 +18.6 96 +23 +23 комфорт 1009.6 1005.6
00 19.06 З 2 60 км дымка 10/9 300 м
[Sc As op]
+21.1 +18.8 87 +25 +26 комфорт 1009.0 1005.0 +18.8 0.7
03 19.06 З 1 8000 м дымка 9// 1000 м
[Sc]
+24.1 +18.9 73 +29 +42 душно 1008.0 1004.0
06 19.06 11 км н/о +26.3 +18.1 61 +31 +33 душно 1006.5 1002.6

 

Местоположение метеостанции Сувон (Корея): широта 37.27 долгота 126.98 высота над уровнем моря 35 м.

В архиве по умолчанию представлена погода в Сувоне за последнюю неделю. Архивные данные за месяц целиком и за предыдущие месяцы, начиная с января 2011 года, Вы можете получить, выбрав интересующий диапазон дат из раскрывающегося списка и нажав кнопку "Ввод!".


*Определитесь, кто Вы:
робот инопланетянин человек

Внимание! Время в таблицах - всемирное. Для получения местного времени необходимо прибавить поправку, которая равна 9 ч.

Смотрите также архив погоды в соседних городах и на ближайших метеорологических станциях:

Погода в Сеуле (Корея) (33 км)
Погода на Базе Camp Humphreys (Корея) (36 км)
Погода в Инчхоне (Корея) (38 км)
Погода в Ичхоне (Корея) (44 км)
Погода в Чхонане (Корея) (57 км)
Погода в Сосане (Корея) (70 км)
Погода в Тондучхоне (Корея) (70 км)
Погода в Мунсане (Корея) (71 км)
Погода в Хонсоне (Корея) (73 км)
Погода в Чхонджу (Корея) (83 км)

Пояснения к столбцам:

Ветер - указаны скорость ветра в м/с - средняя за 10 мин, порывы в срок и между сроками (в фигурных скобках) и направление, откуда дует ветер: С - северный, СВ - северо-восточный, В - восточный, ЮВ - юго-восточный, Ю - южный, ЮЗ - юго-западный, З - западный, СЗ - северо-западный.
Видимость - горизонтальная дальность видимости в метрах или километрах. При видимости от 1 до 10 км при отсутствии осадков обычно наблюдается дымка, при ухудшении видимости до 1 км и менее - туман. В сухую погоду видимость может ухудшаться дымом, пылью или мглою.
Явления - указаны атмосферные явления, наблюдавшиеся в срок или в последний час перед сроком; фигурными скобками обозначены явления, наблюдавшиеся между сроками (за 1-3 часа до срока); квадратными скобками обозначены град или гололедные отложения с указанием их диаметра в мм.
Облачность - указаны через наклонную черту общая и нижняя облачность в баллах и высота нижней границы облаков в метрах; квадратными скобками обозначены формы облаков: Ci - перистые, Cs - перисто-слоистые, Cc - перисто-кучевые, Ac - высококучевые, As - высокослоистые, Sc - слоисто-кучевые, Ns - слоисто-дождевые, Cu - кучевые, Cb - кучево-дождевые. Подробнее классификацию облаков см. в Атласе облаков (PDF).
T - Температура воздуха - температура, измеренная на высоте 2 м над землей.
Td - Температура точки росы - температура, при понижении до которой содержащийся в воздухе водяной пар достигнет насыщения.
f - Относительная влажность воздуха - влажноcть воздуха, измеренная на высоте 2 м над землей.
Te - Эффективная температура - температура, которую ощущает одетый по сезону человек в тени. Характеристика душности погоды. При расчете учитывается влияние влажности воздуха и скорости ветра на теплоощущения человека.
Tes - Эффективная температура на солнце - температура, которую ощущает человек, с поправкой на солнечный нагрев. Характеристика знойности погоды. Зависит от высоты солнца над горизонтом, облачности и скорости ветра. Ночью, в пасмурную погоду, а также при ветре 12 м/с и более поправка равна нулю.
P - Атмосферное давление - приведенное к уровню моря атмосферное давление.
Po - Атмосферное давление - измеренное на уровне метеостанции атмосферное давление.
Tmin - Минимальная температура - минимум температуры воздуха на высоте 2 м над землей.
Tmax - Максимальная температура - максимум температуры воздуха на высоте 2 м над землей.
R - Количество осадков - Количество выпавших осадков за период времени, мм. При наведении курсора мыши на число - период времени, за который выпало указанное количество осадков.
R24 - Количество осадков - Количество выпавших осадков за 24 часа, мм.
S - Снежный покров - Высота снежного покрова, см. При наведении курсора мыши на число - состояние снежного покрова и степень покрытия местности в баллах.